FLOCK 4Y 6

导读

FLOCK 4Y 6是美国Planet公司FLOCK-4y批次的SuperDove商业遥感卫星,于2023年1月3日发射升空,属于Planet公司鸽子(Dove)遥感卫星星座的组成部分。 该卫星配备八个光谱波段,能够为全球客户提供高质量遥感影像,可支撑农业监测、林业资源调查、地理测绘等多领域应用与科学决策,补充了星座在轨观测容量,提升全球对地观测能力。

基本信息
目录编号:
55066
目录名称:
FLOCK 4Y 6
国际标识:
2023-001BK
轨道中心:
EARTH
卫星名称:
FLOCK 4Y 6
卫星全名:
--
卫星状态:
已陨落 最后检测时间 2025-07-01
发射日期:
2023-01-03 UTC
国别 :
美国 (US)
星等 :
--
轨道信息
数据来源 国际轨道数据
星历时间: 2025-06-25T11:25:47+0800
轨道信息已过期397天
半长轴: 6539.525km
偏心率: 0.0016877
轨道倾角: 97.355°
近地点辐角 257.367°
升交点赤经 253.195°
平近点角 102.574°
近地点: 150.353km
远地点: 172.427km
周期: 87.716分钟
每日圈数: 16.41661
详细信息
使用方式:
暂无